Tracking 20037 objects as of 20-Nov-2019
Live streaming from Space Station
objects crossing your sky now

IRIDIUM 68


IRIDIUM 68 is no longer on orbit
IRIDIUM 68 is classified as:


NORAD ID: 25291
Int'l Code: 1998-021G
Perigee: N/A
Apogee: N/A
Inclination: N/A
Period: N/A
Semi major axis: N/A
RCS: N/A
Launch date: April 7, 1998
Source: United States (US)
Launch site: TYURATAM MISSILE AND SPACE COMPLEX (TTMTR)
Decay date: 2018-06-06
aabbcc
Your satellite tracking list
Your tracking list is empty




NASA's NSSDC Master Catalog

Two Line Element Set (TLE):
1 25291U 98021G   18157.51998795  .15483272 -14506-5  27879-3 0  9994
2 25291  86.3397  73.4850 0055354  87.3193 274.3240 16.40310493 56113
Source of the keplerian elements: AFSPC